Location: Newark
(43.0000°N, 1.6781°W)
Time: 19:24:17
(UTC+00:00)

Transit 2A Rocket - Pass Details

Date: 25 April 2021
Orbit: 594 x 908 km, 66.7° (Epoch: 05 May)

Event Time Altitude Azimuth Distance (km) Brightness Sun altitude
Rises 20:59:32 0° 343° (NNW) 2,875 9.0 -19.4°
Reaches altitude 10° 21:02:56 10° 11° (N) 2,006 7.6 -19.9°
Maximum altitude 21:05:07 13° 40° (NE) 1,826 7.0 -20.2°
Enters shadow 21:06:43 11° 62° (ENE) 1,962 6.9 -20.4°
